STARLINK-32244, 60411

Orbit data source: Space-Track

STARLINK-32244, 60411 is a payload satellite owned by SpaceX/Seattle (US) in LEO that was launched on Sat, 10 Aug 2024 UTC via an FALCON 9 launch vehicle from the Air Force Eastern Test Range (AFETR). Payload-class satellites include a variety of spacecraft equipped with specific instruments for various scientific and technological missions. These include communications satellites like Starlink; space stations such as the ISS; scientific satellites like the Hubble; Earth observation satellites from companies like Planet Labs, Umbra, and HawkEye 360; GPS; miniature CubeSats for education and research; and military/defense satellites.

Loading next visibility...
Identifier
60411, 2024-141P
Orbit
LEO
Country
Flag of USUS
Related business
Manufacturer
SpaceX/Seattle
Mission
Operational Commercial Communications
Bus & Motor
STARLINK V2M, Unknown motor
Mass
730 kg wet, ~700 kg dry
Launch date (UTC)
2024-08-10 (1 year ago)
Launch vehicle
FALCON 9
Launch site
Air Force Eastern Test Range (AFETR)
Object type
Payload
Rocket body
Debris
Shape & HBR
Box + 2 Pan, 14.5 m
Radar Cross Section
36.964 m², Large (>1 m²)

Expand to show TLE details & history
Last TLE update: 2 days ago

TLE from 2 days ago
0 STARLINK-32244
1 60411U 24141P   25259.46880262 -.00002696  00000-0 -79007-4 0  9995
2 60411  53.1615 332.0399 0001602  98.3892 261.7291 15.30171397 62904
Epoch: 2025-09-16T11:15Z
TLE epoch observation values (Epoch: 2025-09-16T11:15:04.546Z)
Latitude
0.00003°
Longitude
167.61232°
Altitude
476.358 km
Speed
7.629 km/s
True Right ascension
22h 08m 09s
True Declination
0° 00' 00"
Sunlit
Object was in full shadow at epoch
Visualization orbit readout
Latitude
Unknown
Longitude
Unknown
Altitude
Unknown
Speed
Unknown
Apparent Right ascension
Unknown
Apparent Declination
Unknown
Sunlit
N/A
Visualization observer readout
Local Sidereal Time
22:00:23
Azimuth
Unknown
Elevation
Unknown
Doppler factor
Unknown
Orbital elements
Apogee altitude
476.655 km
Perigee altitude
474.459 km
Semi-major axis
6,853.694 km
Eccentricity
0.00016
Inclination
53.1615°
RAAN
332.0399°
Arg. of periapsis
98.3892°
True anomaly
261.71093°
Mean anomaly
261.7291°
Eccentric anomaly
261.72002°
Mean motion
3.82522 °/min
Orbital period
94.11 mins
BSTAR
-0.000079007
Loading maneuver chart data...
Computing Atmospheric mass density...
Loading historical data...
Loading historical data...
Loading historical data...
Loading historical data...
Loading historical data...
Loading historical data...
Loading historical data...

Documentation

Showing up to 5 results
|